Location: Boissi�res
(45.2500°N, 2.3667°E)
Time: 10:28:14
(UTC+00:00)

ISS - Visible Passes

Search period start: 17 September 2021 00:00
Search period end: 27 September 2021 00:00
Orbit: 419 x 423 km, 51.6° (Epoch: 17 September)

Date Brightness Start Highest point End Pass type
(mag) Time Alt. Az. Time Alt. Az. Time Alt. Az.
17 Sep -3.9 19:37:22 10° SW 19:40:44 75° SSE 19:41:04 66° E visible
18 Sep -3.5 18:50:39 10° SW 18:53:54 47° SE 18:56:29 15° ENE visible
18 Sep -1.6 20:27:37 10° W 20:29:30 26° WNW 20:29:30 26° WNW visible
19 Sep -3.0 19:40:32 10° W 19:43:50 50° NNW 19:44:44 38° NNE visible
20 Sep -3.5 18:53:32 10° WSW 18:56:54 71° NNW 18:59:50 13° ENE visible
20 Sep -1.2 20:31:10 10° WNW 20:32:51 21° NW 20:32:51 21° NW visible
21 Sep -2.3 19:44:02 10° WNW 19:47:06 31° NNW 19:47:51 28° NNE visible
22 Sep -2.5 18:56:54 10° W 19:00:05 37° NNW 19:02:47 13° NE visible
22 Sep -0.9 20:34:34 10° WNW 20:35:47 18° NW 20:35:47 18° NW visible
23 Sep -2.0 19:47:31 10° WNW 19:50:26 26° N 19:50:39 26° N visible
24 Sep -2.1 19:00:24 10° WNW 19:03:22 28° N 19:05:30 15° NE visible
24 Sep -0.6 20:37:43 10° NW 20:38:29 15° NW 20:38:29 15° NW visible
25 Sep -2.2 18:13:15 10° WNW 18:16:18 31° NNW 18:19:22 10° NE visible
25 Sep -2.0 19:50:47 10° NW 19:53:18 28° N 19:53:18 28° N visible
26 Sep -2.1 19:03:46 10° WNW 19:06:42 27° N 19:08:07 20° NE visible
26 Sep -0.4 20:40:41 10° NW 20:41:06 13° NW 20:41:06 13° NW visible
